Mount Ida, AR

12:07 AM CST on February 22, 2018 (GMT -0600)
Mount Ida

Weather History for KMWT - October, 2011

Change the Weather History Date:

Monday, October 24, 2011

  Actual Average (KHOT) Record (KHOT)
Temperature  
Mean Temperature 64 °F -  
Max Temperature 80 °F 71 °F 88 °F (2003)
Min Temperature 48 °F 49 °F 32 °F (1981)
Degree Days  
Heating Degree Days 1    
Growing Degree Days 14 (Base 50)    
Moisture  
Dew Point 51 °F    
Average Humidity 90    
Maximum Humidity 100    
Minimum Humidity 32    
Precipitation  
Precipitation 0.00 in - - ()
Sea Level Pressure  
Sea Level Pressure 30.15 in    
Wind  
Wind Speed 0 mph (SE)    
Max Wind Speed 4 mph    
Max Gust Speed -    
Visibility 4 miles    
Events Fog    
Averages and records for this station are not official NWS values.
T = Trace of Precipitation, MM = Missing Value Source: NWS Daily Summary

Daily Weather History Graph

Daily Weather History Graph

Search for Another Location

Airport or City:

Trip Planner

Search our weather history database for the weather conditions in past years. The results will help you decide how hot, cold, wet, or windy it might be!

Date:

Astronomy

Oct. 24, 2011 Rise Set
Actual Time 7:27 AM CDT 6:29 PM CDT
Civil Twilight 7:01 AM CDT 6:54 PM CDT
Nautical Twilight 6:32 AM CDT 7:24 PM CDT
Astronomical Twilight 6:02 AM CDT 7:53 PM CDT
Moon 4:51 AM CDT (10/24) 4:51 PM CDT (10/24)
Length of Visible Light 11h 53m
Length of Day
11h 02m
Waning Crescent, 7% of the Moon is Illuminated
Oct 24
Waning Crescent
Oct 26
New
Nov 2
First Quarter
Nov 10
Full
Nov 18
Last Quarter

Hourly Weather History & Observations

Time (CDT) Temp. Dew Point Humidity Pressure Visibility Wind Dir Wind Speed Gust Speed Precip Events Conditions
12:53 AM 48.9 °F 48.9 °F 100% 30.12 in 1.2 mi Calm Calm - N/A   Clear
1:04 AM 48.2 °F 48.2 °F 100% 30.12 in 3.0 mi Calm Calm - N/A   Clear
1:14 AM 48.2 °F 48.2 °F 100% 30.12 in 1.8 mi Calm Calm - N/A   Clear
1:24 AM 48.2 °F 48.2 °F 100% 30.12 in 0.8 mi Calm Calm - N/A   Clear
1:30 AM 48.2 °F 48.2 °F 100% 30.12 in 2.0 mi Calm Calm - N/A   Clear
1:41 AM 48.2 °F 48.2 °F 100% 30.12 in 3.0 mi Calm Calm - N/A   Clear
1:53 AM 48.0 °F 48.0 °F 100% 30.12 in 2.5 mi Calm Calm - N/A   Partly Cloudy
2:01 AM 48.2 °F 48.2 °F 100% 30.12 in 2.0 mi Calm Calm - N/A   Mostly Cloudy
2:13 AM 48.2 °F 48.2 °F 100% 30.12 in 5.0 mi Calm Calm - N/A   Mostly Cloudy
2:25 AM 48.2 °F 48.2 °F 100% 30.12 in 1.8 mi Calm Calm - N/A   Overcast
2:33 AM 48.2 °F 48.2 °F 100% 30.12 in 0.5 mi Calm Calm - N/A Fog Fog
2:40 AM 48.2 °F 48.2 °F 100% 30.12 in 0.2 mi Calm Calm - N/A Fog Fog
2:53 AM 48.0 °F 48.0 °F 100% 30.12 in 0.2 mi Calm Calm - N/A Fog Fog
3:53 AM 48.0 °F 48.0 °F 100% 30.11 in 0.2 mi Calm Calm - N/A Fog Fog
4:33 AM 48.2 °F 48.2 °F 100% 30.12 in 0.5 mi Calm Calm - N/A Fog Fog
4:53 AM 48.9 °F 48.9 °F 100% 30.12 in 0.2 mi Calm Calm - N/A Fog Fog
5:02 AM 48.2 °F 48.2 °F 100% 30.12 in 0.2 mi Calm Calm - N/A Fog Fog
5:38 AM 48.2 °F 48.2 °F 100% 30.14 in 0.2 mi Calm Calm - N/A Fog Fog
5:53 AM 48.9 °F 48.9 °F 100% 30.14 in 0.2 mi Calm Calm - N/A Fog Fog
6:48 AM 48.2 °F 48.2 °F 100% 30.16 in 0.5 mi Calm Calm - N/A Fog Fog
6:53 AM 48.9 °F 48.0 °F 97% 30.17 in 0.2 mi Calm Calm - N/A Fog Fog
7:26 AM 48.2 °F 48.2 °F 100% 30.17 in 0.2 mi Calm Calm - N/A Fog Fog
7:39 AM 48.2 °F 48.2 °F 100% 30.18 in 0.2 mi Calm Calm - N/A Fog Fog
7:53 AM 48.0 °F 48.0 °F 100% 30.19 in 0.2 mi Calm Calm - N/A Fog Fog
8:00 AM 48.2 °F 48.2 °F 100% 30.18 in 0.2 mi Calm Calm - N/A Fog Fog
8:53 AM 50.0 °F 50.0 °F 100% 30.21 in 0.2 mi Calm Calm - N/A Fog Fog
9:43 AM 51.8 °F 51.8 °F 100% 30.21 in 0.2 mi Calm Calm - N/A Fog Fog
9:53 AM 53.1 °F 53.1 °F 100% 30.21 in 0.2 mi Calm Calm - N/A Fog Fog
10:31 AM 55.4 °F 55.4 °F 100% 30.21 in 1.0 mi Calm Calm - N/A   Overcast
10:53 AM 55.9 °F 55.9 °F 100% 30.21 in 1.5 mi Calm Calm - N/A   Overcast
11:00 AM 57.2 °F 55.4 °F 94% 30.21 in 3.0 mi Calm Calm - N/A   Overcast
11:40 AM 62.6 °F 59.0 °F 88% 30.21 in 10.0 mi Calm Calm - N/A   Scattered Clouds
11:53 AM 64.9 °F 59.0 °F 81% 30.20 in 10.0 mi Calm Calm - N/A   Clear
12:53 PM 72.0 °F 55.9 °F 57% 30.18 in 10.0 mi Calm Calm - N/A   Clear
1:53 PM 75.9 °F 51.1 °F 42% 30.15 in 10.0 mi Calm Calm - N/A   Clear
2:53 PM 78.1 °F 52.0 °F 40% 30.14 in 10.0 mi Calm Calm - N/A   Clear
3:53 PM 80.1 °F 48.0 °F 32% 30.13 in 10.0 mi Calm Calm - N/A   Clear
4:53 PM 78.1 °F 55.9 °F 46% 30.13 in 10.0 mi SE 3.5 mph - N/A   Clear
5:53 PM 72.0 °F 57.0 °F 59% 30.14 in 10.0 mi Calm Calm - N/A   Clear
6:53 PM 66.0 °F 57.0 °F 73% 30.15 in 10.0 mi Calm Calm - N/A   Clear
7:53 PM 63.0 °F 57.0 °F 81% 30.16 in 10.0 mi Calm Calm - N/A   Clear
8:53 PM 59.0 °F 55.9 °F 90% 30.16 in 10.0 mi Calm Calm - N/A   Clear
9:53 PM 55.9 °F 55.0 °F 97% 30.16 in 9.0 mi Calm Calm - N/A   Clear
10:53 PM 54.0 °F 53.1 °F 97% 30.16 in 6.0 mi Calm Calm - N/A   Clear
11:53 PM 54.0 °F 53.1 °F 97% 30.14 in 10.0 mi Calm Calm - N/A   Clear